Regional Weather Roundup
Issued by NWS

Home | Current Version | Previous Version | Graphics & Text | Print | Product List | Glossary Off
Versions: 1 2 3 4 5 6 7 8 9 10 11 12 13 14 15 16 17 18 19 20 21 22 23 24 25 26 27 28 29 30 31 32 33 34 35 36 37 38 39 40 41 42 43 44 45 46 47 48 49 50

077
ASUS43 KMKX 051800
RWRWI

WISCONSIN REGIONAL WEATHER ROUNDUP
NATIONAL WEATHER SERVICE MILWAUKEE/SULLIVAN WI
1200 PM CST MON DEC 05 2016

NOTE: "FAIR" INDICATES FEW OR NO CLOUDS BELOW 12,000 FEET WITH NO
SIGNIFICANT WEATHER AND/OR OBSTRUCTIONS TO VISIBILITY.

WIZ001-002-006>008-014>016-023>028-051900-
NORTHWEST WISCONSIN

CITY           SKY/WX    TMP DP  RH WIND       PRES   REMARKS
SUPERIOR ARPT  MOSUNNY   37  29  74 S5        29.81S WCI  33
ASHLAND        SUNNY     39  30  70 CALM      29.82S
6HR MIN TEMP:  33; 6HR MAX TEMP:  39;

HAYWARD        PTSUNNY   33  28  81 SE6       29.81F WCI  28
6HR MIN TEMP:  26; 6HR MAX TEMP:  33;

SIREN          SUNNY     37  29  73 SE8       29.76F WCI  30
CUMBERLAND     FOG       30  28  93 SE9       29.78F VSB 1/2 WCI  22
RICE LAKE      CLOUDY    30  29  97 SE9       29.82F FOG     WCI  22
CHETEK         FOG       30  30 100 SE8       29.82F VSB 1   WCI  22
LADYSMITH      CLOUDY    31  31  99 SE5       29.85F FOG     WCI  27
EAU CLAIRE     CLOUDY    33  32  96 SE10      29.81F FOG     WCI  25
6HR MIN TEMP:  25; 6HR MAX TEMP:  33;

MENOMONIE      CLOUDY    33  33 100 E9        29.80F FOG     WCI  26
6HR MIN TEMP:  21; 6HR MAX TEMP:  33;

NEW RICHMOND   CLOUDY    32  32 100 SE8       29.76F WCI  25
OSCEOLA        CLOUDY    33  33 100 E10G16    29.78S WCI  24
$$

WIZ003>005-009-010-017-018-051900-
NORTH CENTRAL WISCONSIN

CITY           SKY/WX    TMP DP  RH WIND       PRES   REMARKS
MANITOWISH WTR SUNNY     34  30  86 S7        29.80F WCI  28
ARBOR VITAE    SUNNY     37  32  84 S9        29.82S WCI  30
WOODRUFF       SUNNY     37  32  84 S9        29.82S WCI  30
RHINELANDER    SUNNY     36  29  75 S9        29.83F WCI  29
6HR MIN TEMP:  30; 6HR MAX TEMP:  36;

EAGLE RIVER    SUNNY     34  27  74 SW6       29.82S WCI  29
LAND O LAKES   SUNNY     37  30  75 SW5       29.82F WCI  33
PHILLIPS       CLOUDY    31  29  94 S3        29.83S
TOMAHAWK       PTSUNNY   32  28  83 CALM      29.85S
MEDFORD        CLOUDY    30  29  95 SE8       29.84F FOG     WCI  22
MERRILL        CLOUDY    33  30  90 S6        29.88S WCI  27
$$

WIZ029-030-035-036-043>047-051900-
CENTRAL WISCONSIN

CITY           SKY/WX    TMP DP  RH WIND       PRES   REMARKS
WAUSAU         CLOUDY    32  30  92 S6        29.86S WCI  26
6HR MIN TEMP:  31; 6HR MAX TEMP:  32;

MOSINEE        CLOUDY    32  32 100 SE6       29.88F WCI  26
MARSHFIELD     CLOUDY    32  30  92 SE7       29.85F FOG     WCI  26
6HR MIN TEMP:  31; 6HR MAX TEMP:  32;

STEVENS POINT  CLOUDY    31  30  98 S7        29.90R WCI  24
WAUPACA        CLOUDY    36  32  85 CALM      29.92S
WAUTOMA        CLOUDY    35  32  88 S6        29.92S FOG     WCI  30
6HR MIN TEMP:  33; 6HR MAX TEMP:  36;

WISC RAPIDS    CLOUDY    33  33 100 S7        29.90F FOG     WCI  27
6HR MIN TEMP:  32; 6HR MAX TEMP:  33;

CAMP DOUGLAS   NOT AVBL
$$

WIZ011>013-019>022-031-037>040-048>050-051900-
NORTHEAST WISCONSIN

CITY           SKY/WX    TMP DP  RH WIND       PRES   REMARKS
ANTIGO         CLOUDY    33  29  87 SW9       29.87R WCI  25
SHAWANO        CLOUDY    37  31  81 SW5       29.92S WCI  33
6HR MIN TEMP:  33; 6HR MAX TEMP:  37;

OCONTO         CLOUDY    35  30  83 SW8       29.92R WCI  28
STURGEON BAY   CLOUDY    35  30  82 SW9       29.94R WCI  28
6HR MIN TEMP:  34; 6HR MAX TEMP:  38;

GREEN BAY      CLOUDY    36  31  82 S8        29.94R WCI  30
6HR MIN TEMP:  33; 6HR MAX TEMP:  36;

MANITOWOC      NOT AVBL
APPLETON       CLOUDY    34  32  93 S8        29.92R WCI  27
CLINTONVILLE   CLOUDY    34  30  86 S8        29.92R WCI  27
OSHKOSH        CLOUDY    34  31  88 S9        29.93S FOG     WCI  27
6HR MIN TEMP:  32; 6HR MAX TEMP:  34;

$$

WIZ032>034-041-042-053>061-051900-
SOUTHWEST WISCONSIN

CITY           SKY/WX    TMP DP  RH WIND       PRES   REMARKS
LA CROSSE      CLOUDY    38  33  82 S10       29.85F WCI  31
6HR MIN TEMP:  35; 6HR MAX TEMP:  38;

SPARTA         CLOUDY    36  33  89 S6        29.88F WCI  31
VIROQUA        CLOUDY    33  33 100 S12       29.87S WCI  24
BOSCOBEL       CLOUDY    36  32  85 E6        29.91F WCI  31
6HR MIN TEMP:  34; 6HR MAX TEMP:  36;

PRAIRIE DU CHI CLOUDY    34  32  91 E9        29.89F FOG     WCI  27
PLATTEVILLE    CLOUDY    33  33 100 S12       29.93S VSB 1/2 WCI  24
$$

WIZ056-057-062-063-064-067-068-051900-
SOUTH CENTRAL WISCONSIN

CITY           SKY/WX    TMP DP  RH WIND       PRES   REMARKS
REEDSBURG      CLOUDY    33  33  99 SE5       29.90F FOG     WCI  29
6HR MIN TEMP:  32; 6HR MAX TEMP:  33;

BARABOO/DELLS  CLOUDY    33  32  96 S10       29.92R FOG     WCI  25
LONE ROCK      CLOUDY    35  32  88 S7        29.93F WCI  29
6HR MIN TEMP:  33; 6HR MAX TEMP:  35;

MINERAL POINT  FOG       34  34 100 S14       29.92S VSB 1   WCI  24
MADISON        CLOUDY    33  31  92 S15       29.94S FOG     WCI  23
6HR MIN TEMP:  33; 6HR MAX TEMP:  33;

MIDDLETON      CLOUDY    35  35 100 S9        29.93F WCI  27
WATERTOWN      CLOUDY    32  32 100 S10       29.95S FOG     WCI  24
MONROE         SNOW      32  32 100 S15       29.95S VSB 1/4 WCI  22
JANESVILLE     FOG       34  34 100 S9        29.97S VSB 1   WCI  26
$$

WIZ051-052-058>065-066-070>072-051900-
SOUTHEAST WISCONSIN

CITY           SKY/WX    TMP DP  RH WIND       PRES   REMARKS
MILWAUKEE      CLOUDY    34  31  88 S12       29.98S FOG     WCI  25
6HR MIN TEMP:  34; 6HR MAX TEMP:  35;

WAUKESHA       CLOUDY    30  30 100 S7        29.97F FOG     WCI  23
MILWAUKEE/TIMM CLOUDY    34  30  86 S10       29.98F FOG     WCI  26
RACINE         CLOUDY    33  31  92 S8        30.00F FOG     WCI  26
6HR MIN TEMP:  33; 6HR MAX TEMP:  33;

BURLINGTON     CLOUDY    32  32  99 S7        29.98F FOG     WCI  26
KENOSHA        CLOUDY    33  31  92 S12       29.99F FOG     WCI  24
6HR MIN TEMP:  32; 6HR MAX TEMP:  33;

FOND DU LAC    CLOUDY    34  30  85 S9        29.94S WCI  27
6HR MIN TEMP:  33; 6HR MAX TEMP:  34;

SHEBOYGAN      CLOUDY    34  30  85 S9        29.95F WCI  27
6HR MIN TEMP:  31; 6HR MAX TEMP:  34;

WEST BEND      CLOUDY    34  32  93 S7        29.95F WCI  28
JUNEAU         CLOUDY    32  32  98 S12       29.95S FOG     WCI  23
$$

LSZ147-162-051900-
LAKE SUPERIOR

STATION/POSITION TIME  TEMP    WIND        PRES    WAVE
                       AIR SEA DIR/SP/G            HT/PER
                 (UTC) (F)     (DEG/KT/KT) (MB)    (FT/S)
DEVILS ISLAND    1700   36     270/  9/ 11 1010.3F
PORT WING        1740   36     340/  3/  5 1010.2S
SAXON HARBOR     1740   40     200/  3/  6 1009.8F
$$

LMZ867-665-643>646-051900-
LAKE MICHIGAN

STATION/POSITION TIME  TEMP    WIND        PRES    WAVE
                       AIR SEA DIR/SP/G            HT/PER
                 (UTC) (F)     (DEG/KT/KT) (MB)    (FT/S)
CHAMBERS ISLAND  1740   39     180/  5/ 10 1012.5S
NORTHPORT PIER   1740   40     250/  4/  9 1012.5F
SISTER BAY       1723   41     290/ 10/ 12   N/A
ALGOMA LAKESHORE 1706          230/  9/ 12   N/A
KEWAUNEE LAKESHO 1730   35     200/  9/ 11 1013.7R
SHEBOYGAN LAKESH 1700   34     210/ 11/ 13 1015.1F
PORT WASHINGTON  1730   36     190/  8/ 12 1015.9S
MILWAUKEE LAKESH 1730   33     190/ 11/ 13   N/A
KENOSHA   LAKESH 1700   33     180/  9/ 15 1016.3
$$

TC  - TEMPERATURE IN CELSIUS
VSB - VISIBILITY IN STATUTE MILES
WCI - WIND CHILL INDEX
HX  - HEAT INDEX





USA.gov is the U.S. government's official web portal to all federal, state and local government web resources and services.